Regional Weather Roundup
Issued by NWS

Home | Current Version | Previous Version | Graphics & Text | Print | Product List | Glossary On
Versions: 1 2 3 4 5 6 7 8 9 10 11 12 13 14 15 16 17 18 19 20 21 22 23 24 25 26 27 28 29 30 31 32 33 34 35 36 37 38 39 40 41 42 43 44 45 46 47 48 49 50
000
ASUS45 KPSR 021000
RWRAZ

PRELIMINARY ARIZONA REGIONAL HOURLY WEATHER ROUNDUP
NATIONAL WEATHER SERVICE PHOENIX AZ
300 AM MST MON MAR 02 2015

NOTE: FAIR INDICATES FEW OR NO CLOUDS BELOW 12,000 FEET WITH NO
SIGNIFICANT WEATHER AND/OR OBSTRUCTIONS TO VISIBILITY.

AZZ001>003-036-021100-
NORTHWEST ARIZONA

CITY           SKY/WX    TMP DP  RH WIND       PRES   REMARKS
KINGMAN        LGT RAIN  41  39  93 W7        29.87S
$$

AZZ004>008-015-016-018-021100-
NORTH CENTRAL ARIZONA

CITY           SKY/WX    TMP DP  RH WIND       PRES   REMARKS
GRAND CANYON   FLURRIES  37  36  96 S17G28    29.91F WCI  27
PRESCOTT       LGT RAIN  46  38  73 S16G28    29.91F
FLAGSTAFF      NOT AVBL
PAYSON         CLOUDY    46  46 100 S12G24    29.99F
PAGE           LGT RAIN  37  34  89 CALM      29.91F
$$

AZZ009>014-017-021100-
NORTHEAST ARIZONA

CITY           SKY/WX    TMP DP  RH WIND       PRES   REMARKS
WINSLOW        NOT AVBL
SAINT JOHNS    MOCLDY    33  28  81 NW3       29.99F
WINDOW ROCK    CLEAR     38  34  85 S5        30.03F WCI  34
$$

AZZ023-021100-
GREATER PHOENIX AREA

CITY           SKY/WX    TMP DP  RH WIND       PRES   REMARKS
PHOENIX        CLOUDY    64  49  57 SE3       29.89F
DEER VALLEY    CLOUDY    60  50  69 CALM      29.90F
SCOTTSDALE     CLOUDY    62  49  62 CALM      29.91F
$$

AZZ027-028-021100-
SOUTHWEST MARICOPA COUNTY AND PINAL COUNTY

CITY           SKY/WX    TMP DP  RH WIND       PRES   REMARKS
CASA GRANDE    CLOUDY    61  48  63 S7        29.92F
GILA BEND      CLOUDY    64  48  56 SW12G17   29.89F
$$

AZZ503-504-507>509-021100-
SOUTHEAST ARIZONA

CITY           SKY/WX    TMP DP  RH WIND       PRES   REMARKS
TUCSON         PTCLDY    63  43  48 S9        29.97F
DAVIS-MONTHAN  MOCLDY    58  42  54 S2        29.95F
NOGALES        MOCLDY    56  43  61 S17       30.01R
SIERRA VISTA   MOCLDY    57  25  28 S24G35    29.97F
SAFFORD        CLOUDY    60  34  37 SE9       29.95F
$$

AZZ020-021-025-026-031-021100-
SOUTHWEST ARIZONA

CITY           SKY/WX    TMP DP  RH WIND       PRES   REMARKS
YUMA           NOT AVBL
$$

CAZ031-033-041-043-047-048-061-021100-
SOUTHERN CALIFORNIA

CITY           SKY/WX    TMP DP  RH WIND       PRES   REMARKS
DOWNTOWN L.A.  CLOUDY    50  48  93 CALM      29.92F
L.A. AIRPORT   MOCLDY    50  47  89 NE7       29.91F
SAN DIEGO      LGT RAIN  53  48  83 SE6       29.94F
BURBANK        MOCLDY    50  46  86 CALM      29.90F
ONTARIO        MOCLDY    49  41  74 E3        29.91F
RIVERSIDE      CLOUDY    51  42  71 CALM      29.91F
PALM SPRINGS   CLOUDY    52  48  86 CALM      29.93F
EL CENTRO NAS  CLOUDY    52  50  93 CALM      29.91F
IMPERIAL       CLOUDY    52  50  93 SW5       29.92S
BLYTHE         CLOUDY    51  51 100 CALM      29.91F
$$

NVZ020-UTZ003-021100-
SOUTHERN NEVADA-UTAH

CITY           SKY/WX    TMP DP  RH WIND       PRES   REMARKS
LAS VEGAS      NOT AVBL
SALT LAKE CITY CLOUDY    39  31  72 E3        29.89F
$$

NMZ009-TXZ055-021100-
NEW MEXICO-WEST TEXAS

CITY           SKY/WX    TMP DP  RH WIND       PRES   REMARKS
ALBUQUERQUE    CLOUDY    38  31  76 N9        30.09F WCI  31
EL PASO        CLOUDY    54  32  43 NE6       30.05F
$$


........................KEY........................
SKY/WX - SKY CONDITION/WEATHER
TMP    - TEMPERATURE IN FAHRENHEIT
DP     - DEW POINT IN FAHRENHEIT
RH     - RELATIVE HUMIDITY IN PERCENT
WIND   - DIRECTION AND SPEED IN MILES PER HOUR (MPH)
VRB    - VARIABLE WIND DIRECTION
PRES   - MEAN SEA LEVEL PRESSURE IN INCHES OF MERCURY
         F - FALLING PRESSURE   R - RISING PRESSURE
         S - STEADY PRESSURE
VSB    - VISIBILITY IN MILES
HX     - HEAT INDEX IN FAHRENHEIT
WCI    - WIND CHILL INDEX IN FAHRENHEIT
TC     - TEMPERATURE IN CELSIUS WHICH IS ALSO KNOWN AS
         TEMPERATURE IN CENTIGRADE
AFB    - AIR FORCE BASE
         LUKE AFB IS LUKE AIR FORCE BASE
         DAVIS-MONTHAN IS DAVIS-MONTHAN AIR FORCE BASE
NAS    - NAVAL AIR STATION
         EL CENTRO NAS IS EL CENTRO NAVAL AIR STATION
N/A    - NOT AVAILABLE


USA.gov is the U.S. government's official web portal to all federal, state and local government web resources and services.